| time (UTC) | temp F | wind direction | speed MPH | gust MPH | rain 1hr in | rain 24hr in | rain mn in | humidity % | barometer mb |
| 20260903061558 | 77 | 217 | 1.0 | 4.0 | 0.00 | 0.12 | 0.00 | 64 | 1014.6 |
| 20260903060149 | 78 | 213 | 2.0 | 4.0 | 0.00 | 0.12 | 0.00 | 62 | 1014.6 |
| 20260903054601 | 79 | 217 | 3.0 | 5.0 | 0.00 | 0.12 | 0.00 | 60 | 1014.6 |
| 20260903053055 | 79 | 217 | 3.0 | 5.0 | 0.00 | 0.12 | 0.00 | 60 | 1014.6 |
| 20260903051607 | 81 | 0 | 0.0 | 4.0 | 0.00 | 0.12 | 0.00 | 58 | 1014.5 |
| 20260903044602 | 82 | 0 | 1.0 | 5.0 | 0.00 | 0.12 | 0.12 | 54 | 1014.4 |
| 20260903043054 | 82 | 0 | 0.0 | 1.0 | 0.00 | 0.12 | 0.12 | 58 | 1014.4 |
| 20260903041600 | 83 | 0 | 0.0 | 1.0 | 0.00 | 0.12 | 0.12 | 58 | 1014.2 |
| 20260903040105 | 84 | 0 | 0.0 | 0.0 | 0.00 | 0.12 | 0.12 | 47 | 1014.2 |
| 20260903034555 | 85 | 0 | 0.0 | 6.0 | 0.00 | 0.12 | 0.12 | 49 | 1014.3 |
| 20260903033103 | 84 | 121 | 0.0 | 1.0 | 0.00 | 0.12 | 0.12 | 53 | 1014.2 |
| 20260903031600 | 85 | 0 | 0.0 | 0.0 | 0.00 | 0.12 | 0.12 | 52 | 1014.1 |
| 20260903024559 | 83 | 0 | 0.0 | 0.0 | 0.00 | 0.12 | 0.12 | 57 | 1013.7 |
| 20260903023110 | 84 | 0 | 0.0 | 1.0 | 0.00 | 0.12 | 0.12 | 59 | 1013.5 |
| 20260903021607 | 85 | 0 | 0.0 | 0.0 | 0.00 | 0.12 | 0.12 | 55 | 1013.3 |
| 20260903014605 | 87 | 0 | 0.0 | 1.0 | 0.00 | 0.12 | 0.12 | 50 | 1013.5 |
| 20260903013106 | 88 | 0 | 0.0 | 8.0 | 0.00 | 0.12 | 0.12 | 41 | 1013.3 |
| 20260903011602 | 89 | 0 | 4.0 | 11.0 | 0.01 | 0.12 | 0.12 | 38 | 1013.1 |
| 20260903010058 | 89 | 0 | 0.0 | 9.0 | 0.03 | 0.12 | 0.12 | 40 | 1013.1 |
| 20260903004600 | 88 | 287 | 7.0 | 12.0 | 0.12 | 0.12 | 0.12 | 42 | 1013.0 |
| 20260903003059 | 89 | 327 | 9.0 | 18.0 | 0.12 | 0.12 | 0.12 | 38 | 1012.9 |
| 20260903001610 | 89 | 309 | 12.0 | 18.0 | 0.11 | 0.11 | 0.11 | 42 | 1013.1 |
| 20260903000103 | 93 | 250 | 7.0 | 17.0 | 0.09 | 0.09 | 0.09 | 36 | 1013.2 |
| 20260902234623 | 99 | 200 | 9.0 | 13.0 | 0.00 | 0.00 | 0.00 | 26 | 1012.6 |
| 20260902233101 | 100 | 145 | 8.0 | 12.0 | 0.00 | 0.00 | 0.00 | 26 | 1012.8 |
| 20260902231608 | 101 | 0 | 0.0 | 1.0 | 0.00 | 0.00 | 0.00 | 26 | 1012.7 |
| 20260902230115 | 101 | 149 | 2.0 | 7.0 | 0.00 | 0.00 | 0.00 | 25 | 1012.8 |
| 20260902224603 | 100 | 0 | 0.0 | 3.0 | 0.00 | 0.00 | 0.00 | 25 | 1012.8 |
| 20260902223101 | 97 | 0 | 0.0 | 1.0 | 0.00 | 0.00 | 0.00 | 29 | 1013.0 |
| 20260902221603 | 99 | 322 | 0.0 | 8.0 | 0.00 | 0.00 | 0.00 | 25 | 1013.1 |
| 20260902220106 | 99 | 213 | 1.0 | 9.0 | 0.00 | 0.00 | 0.00 | 24 | 1013.1 |
| 20260902214605 | 100 | 0 | 2.0 | 6.0 | 0.00 | 0.00 | 0.00 | 25 | 1013.5 |
| 20260902213100 | 98 | 0 | 1.0 | 7.0 | 0.00 | 0.00 | 0.00 | 25 | 1013.5 |
| 20260902211602 | 99 | 0 | 0.0 | 5.0 | 0.00 | 0.00 | 0.00 | 26 | 1013.8 |
| 20260902204601 | 99 | 0 | 0.0 | 6.0 | 0.00 | 0.00 | 0.00 | 27 | 1014.2 |
| 20260902203133 | 98 | 64 | 3.0 | 7.0 | 0.00 | 0.00 | 0.00 | 27 | 1014.6 |
| 20260902201603 | 98 | 85 | 0.0 | 6.0 | 0.00 | 0.00 | 0.00 | 28 | 1014.9 |
| 20260902194602 | 98 | 0 | 2.0 | 8.0 | 0.00 | 0.00 | 0.00 | 26 | 1015.4 |
| 20260902193105 | 98 | 138 | 6.0 | 10.0 | 0.00 | 0.00 | 0.00 | 29 | 1015.6 |
| 20260902191600 | 97 | 0 | 1.0 | 4.0 | 0.00 | 0.00 | 0.00 | 31 | 1015.8 |
| 20260902190105 | 97 | 42 | 0.0 | 14.0 | 0.00 | 0.00 | 0.00 | 33 | 1016.0 |
| 20260902184604 | 96 | 105 | 4.0 | 10.0 | 0.00 | 0.00 | 0.00 | 30 | 1016.1 |
| 20260902183108 | 96 | 132 | 4.0 | 10.0 | 0.00 | 0.00 | 0.00 | 33 | 1016.4 |
| 20260902181602 | 95 | 0 | 4.0 | 9.0 | 0.00 | 0.00 | 0.00 | 32 | 1016.5 |
| 20260902180103 | 95 | 65 | 2.0 | 7.0 | 0.00 | 0.00 | 0.00 | 37 | 1016.8 |
| 20260902174609 | 94 | 20 | 3.0 | 10.0 | 0.00 | 0.00 | 0.00 | 34 | 1017.1 |
| 20260902173106 | 93 | 105 | 1.0 | 8.0 | 0.00 | 0.00 | 0.00 | 35 | 1017.2 |
| 20260902171608 | 93 | 65 | 4.0 | 8.0 | 0.00 | 0.00 | 0.00 | 36 | 1017.6 |
| 20260902164605 | 91 | 32 | 3.0 | 9.0 | 0.00 | 0.00 | 0.00 | 38 | 1017.7 |
| 20260902163101 | 90 | 54 | 5.0 | 10.0 | 0.00 | 0.00 | 0.00 | 42 | 1017.8 |
| 20260902161615 | 90 | 12 | 3.0 | 9.0 | 0.00 | 0.00 | 0.00 | 40 | 1017.8 |
| 20260902160103 | 88 | 36 | 2.0 | 8.0 | 0.00 | 0.00 | 0.00 | 41 | 1017.9 |
| 20260902154601 | 87 | 331 | 4.0 | 7.0 | 0.00 | 0.00 | 0.00 | 44 | 1017.8 |
| 20260902153059 | 85 | 41 | 1.0 | 4.0 | 0.00 | 0.00 | 0.00 | 48 | 1017.7 |
| 20260902151551 | 84 | 23 | 0.0 | 3.0 | 0.00 | 0.00 | 0.00 | 49 | 1017.6 |
| 20260902144611 | 81 | 350 | 4.0 | 7.0 | 0.00 | 0.00 | 0.00 | 55 | 1017.6 |
| 20260902143059 | 79 | 327 | 4.0 | 7.0 | 0.00 | 0.00 | 0.00 | 59 | 1017.5 |
| 20260902141601 | 77 | 340 | 3.0 | 5.0 | 0.00 | 0.00 | 0.00 | 64 | 1017.4 |
| 20260902140059 | 76 | 336 | 4.0 | 5.0 | 0.00 | 0.00 | 0.00 | 65 | 1017.1 |
| 20260902134602 | 75 | 310 | 4.0 | 6.0 | 0.00 | 0.00 | 0.00 | 68 | 1017.1 |
| 20260902133102 | 74 | 0 | 0.0 | 2.0 | 0.00 | 0.00 | 0.00 | 69 | 1016.8 |
| 20260902131559 | 73 | 60 | 1.0 | 4.0 | 0.00 | 0.00 | 0.00 | 70 | 1016.7 |
| 20260902124604 | 75 | 0 | 0.0 | 2.0 | 0.00 | 0.00 | 0.00 | 66 | 1016.2 |
| 20260902123102 | 75 | 243 | 3.0 | 5.0 | 0.00 | 0.00 | 0.00 | 64 | 1016.0 |
| 20260902121610 | 74 | 229 | 2.0 | 2.0 | 0.00 | 0.00 | 0.00 | 67 | 1016.0 |
| 20260902120110 | 75 | 243 | 2.0 | 3.0 | 0.00 | 0.00 | 0.00 | 66 | 1016.1 |
| 20260902114619 | 74 | 249 | 0.0 | 3.0 | 0.00 | 0.00 | 0.00 | 68 | 1016.0 |
| 20260902113103 | 75 | 266 | 0.0 | 3.0 | 0.00 | 0.00 | 0.00 | 67 | 1016.1 |
| 20260902111605 | 75 | 0 | 0.0 | 1.0 | 0.00 | 0.00 | 0.00 | 62 | 1016.0 |
| 20260902110101 | 74 | 197 | 0.0 | 3.0 | 0.00 | 0.00 | 0.00 | 65 | 1016.0 |
| 20260902104604 | 75 | 210 | 1.0 | 2.0 | 0.00 | 0.00 | 0.00 | 66 | 1016.1 |
| 20260902103117 | 76 | 0 | 0.0 | 3.0 | 0.00 | 0.00 | 0.00 | 61 | 1016.0 |
| 20260902101558 | 77 | 0 | 0.0 | 3.0 | 0.00 | 0.00 | 0.00 | 59 | 1016.1 |
| 20260902100059 | 77 | 0 | 0.0 | 0.0 | 0.00 | 0.00 | 0.00 | 58 | 1016.1 |
| 20260902094600 | 77 | 0 | 0.0 | 2.0 | 0.00 | 0.00 | 0.00 | 58 | 1016.0 |
| 20260902093110 | 77 | 154 | 1.0 | 2.0 | 0.00 | 0.00 | 0.00 | 61 | 1016.0 |
| 20260902091559 | 76 | 0 | 0.0 | 0.0 | 0.00 | 0.00 | 0.00 | 59 | 1016.1 |
| 20260902084602 | 76 | 0 | 0.0 | 0.0 | 0.00 | 0.00 | 0.00 | 58 | 1016.3 |
| 20260902083059 | 76 | 0 | 0.0 | 0.0 | 0.00 | 0.00 | 0.00 | 59 | 1016.4 |
| 20260902081558 | 77 | 0 | 0.0 | 0.0 | 0.00 | 0.00 | 0.00 | 61 | 1016.4 |
| 20260902080104 | 78 | 0 | 0.0 | 0.0 | 0.00 | 0.00 | 0.00 | 59 | 1016.4 |
| 20260902074613 | 78 | 0 | 0.0 | 4.0 | 0.00 | 0.00 | 0.00 | 58 | 1016.4 |
| 20260902073104 | 78 | 147 | 0.0 | 3.0 | 0.00 | 0.00 | 0.00 | 57 | 1016.3 |
| 20260902071603 | 79 | 0 | 0.0 | 5.0 | 0.00 | 0.00 | 0.00 | 55 | 1016.4 |
| 20260902070103 | 79 | 144 | 5.0 | 9.0 | 0.00 | 0.00 | 0.00 | 54 | 1016.3 |
| 20260902064602 | 80 | 155 | 4.0 | 6.0 | 0.00 | 0.00 | 0.00 | 53 | 1016.3 |
| 20260902063059 | 79 | 171 | 2.0 | 9.0 | 0.00 | 0.00 | 0.00 | 54 | 1016.3 |